Regional Weather Roundup
Issued by NWS

Home | Current Version | Previous Version | Text Only | Print | Product List | Glossary On
Versions: 1 2 3 4 5 6 7 8 9 10 11 12 13 14 15 16 17 18 19 20 21 22 23 24 25 26 27 28 29 30 31 32 33 34 35 36 37 38 39 40 41 42 43 44 45 46 47 48 49 50
000
ASUS45 KREV 010410
RWRNV
NEVADA REGIONAL WEATHER ROUNDUP
NATIONAL WEATHER SERVICE RENO NV
900 PM PDT MON AUG 31 2015

NOTE: "FAIR" INDICATES FEW OR NO CLOUDS BELOW 12,000 FEET WITH NO
SIGNIFICANT WEATHER AND/OR OBSTRUCTIONS TO VISIBILITY.

NVZ001-003-004-010500-
WESTERN NEVADA

CITY           SKY/WX    TMP DP  RH WIND       PRES   REMARKS
RENO           CLEAR     78  26  14 NW10      29.98R
CARSON CITY    FAIR      73  27  17 NW3       30.00R
MINDEN         FAIR      66  30  26 SW3       30.01R
SLIDE MTN        N/A     52  28  40 W12         N/A
PYRAMID LAKE     N/A     79 N/A N/A SW8         N/A
FALLON         CLEAR     71  27  19 N8        29.91R
LOVELOCK       CLEAR     73  22  14 W7        29.92R
HAWTHORNE      CLEAR     82  36  18 NW14      29.90R
$$

NVZ002-CAZ072-073-010500-
NORTHERN AND CENTRAL SIERRA

CITY           SKY/WX    TMP DP  RH WIND       PRES   REMARKS
S. LAKE TAHOE  CLEAR     63  32  31 SE7       30.13R
TRUCKEE        CLEAR     57  28  33 SE3       30.13R
SQUAW VLY 8000   N/A     52  27  37 SW2         N/A
SUSANVILLE     CLEAR     73  32  21 W7        29.99R
BLUE CANYON    CLEAR     63  33  32 CALM      30.10S
MAMMOTH LAKES  FAIR      63  27  25 CALM      30.16R
BRIDGEPORT     FAIR      66  32  28 NW6       30.12R
$$

NVZ030-031-036-010500-
NORTHERN NEVADA

CITY           SKY/WX    TMP DP  RH WIND       PRES   REMARKS
ELKO           CLEAR     70  28  21 CALM      29.99R
WINNEMUCCA     CLEAR     65  22  19 CALM      29.95
WENDOVER       PTCLDY    75  30  19 CALM      29.96R
$$

NVZ035-037-010500-
CENTRAL NEVADA

CITY           SKY/WX    TMP DP  RH WIND       PRES   REMARKS
ELY            CLEAR     64  30  27 S13       30.09R
EUREKA           N/A     72  25  17 NE7       30.04R
$$

NVZ013-014-010500-
SOUTH CENTRAL NEVADA

CITY           SKY/WX    TMP DP  RH WIND       PRES   REMARKS
TONOPAH        CLEAR     71  23  16 S6        30.04R
$$

NVZ017-020-022-010500-
SOUTHERN NEVADA

CITY           SKY/WX    TMP DP  RH WIND       PRES   REMARKS
LAS VEGAS      CLEAR     94  34  12 SW8       29.78R
N. LAS VEGAS   CLEAR     93  38  14 SW7       29.80R
NELLIS AFB     CLEAR     94  42  16 S9        29.78R
HENDERSON        N/A    N/A N/A N/A MISG        N/A
MERCURY        CLEAR     85  28  12 SW7       29.88R
$$



USA.gov is the U.S. government's official web portal to all federal, state and local government web resources and services.